Regional Weather Roundup
Issued by NWS Lake Charles, LA

Home | Current Version | Previous Version | Text Only | Print | Product List | Glossary On
Versions: 1 2 3 4 5 6 7 8 9 10 11 12 13 14 15 16 17 18 19 20 21 22 23 24 25 26 27
000
ASUS44 KLCH 100710
RWRLCH
REGIONAL WEATHER ROUNDUP
NATIONAL WEATHER SERVICE LAKE CHARLES LA
100 AM CST SAT DEC 10 2016

Note: "fair" indicates few or no clouds below 12,000 feet with no
significant weather and/or obstructions to visibility.


ACROSS SOUTHEAST TEXAS

CITY           SKY/WX    TMP DP  RH WIND       PRES   REMARKS
BEAUMONT       CLOUDY    42  27  55 NE9       30.52S
BEAUMONT CITY  CLOUDY    42  27  55 MISG      30.53S
ORANGE         SUNNY     38  25  61 NE5       30.55R
JASPER           N/A     33  31  92 E3        30.55F
$$

ACROSS CENTRAL LOUISIANA

CITY           SKY/WX    TMP DP  RH WIND       PRES   REMARKS
LEESVILLE      CLEAR     33  25  72 NE6       30.53S WCI  28
FULLERTON      FAIR      33  25  72 VRB3      30.52S
ALEXANDRIA INT CLEAR     32  26  78 NE5       30.54F WCI  27
ESLER FIELD    CLEAR     32  26  78 NE3       30.55S
DERIDDER       FAIR      34  24  67 NE3       30.56R
OAKDALE        SUNNY     33  27  80 N3        30.54S
OPELOUSAS      FAIR      32  27  83 N5        30.54S WCI  27
$$

ACROSS SOUTHWEST AND SOUTH CENTRAL LOUISIANA

CITY           SKY/WX    TMP DP  RH WIND       PRES   REMARKS
SULPHUR        SUNNY     40  28  61 NE6       30.53S
LAKE CHARLES   CLEAR     35  29  78 NE8       30.52S WCI  29
CHENNAULT INT  CLEAR     35  28  76 NE7       30.53S WCI  29
CAMERON PHI    NOT AVBL
DEQUINCY       FAIR      34  27  76 N3        30.54S
JENNINGS       FAIR      36  28  75 NE6       30.53S
LAFAYETTE      PTCLDY    35  29  78 N5        30.53F
NEW IBERIA     PTCLDY    37  27  67 NE9       30.53F
ABBEVILLE      FAIR      34  30  86 MISG      30.52F
PATTERSON      CLEAR    N/A N/A N/A N6        30.52F
SALT POINT     NOT AVBL
$$

SELECTED SITES ACROSS THE REGION

CITY           SKY/WX    TMP DP  RH WIND       PRES   REMARKS
HOUSTON BUSH   CLOUDY    43  28  55 NE5       30.51F
HOUSTON HOBBY  MOCLDY    46  29  51 NE6       30.50F
GALVESTON      CLOUDY    49  34  56 NE13      30.50F
COLLEGE STAT   CLEAR     39  28  64 E3        30.50F
CONROE         PTCLDY    39  32  76 CALM      30.52S
HUNTSVILLE     PTCLDY    35  30  82 CALM      30.51F
LUFKIN         PTCLDY    34  25  69 NE3       30.53F
SHREVEPORT     MOCLDY    38  25  59 E8        30.55S
MONROE         CLEAR     29  25  85 NE3       30.60S
NATCHEZ MS     CLEAR     28  21  74 N5        30.55S WCI  23
BATON ROUGE    PTCLDY    34  24  67 NE3       30.52F
N.O. INTL ARPT CLEAR     43  27  53 NE10      30.51R
SLIDELL        CLEAR     35  23  61 CALM      30.52R
$$

MARINE REPORTS

STATION/POSITION TIME  SKY/WX   TEMP    WIND        PRES    VSBY
                                AIR SEA DIR/SP/G
                 (UTC)          (F)     (DEG/KT/KT) (MB)    (MI)
BUOY 30 S HIGH I 0650            52 64   50/ 14/ 17 1032.4F
WVE H/P(F/S)=  3/ 6

SEA RIM ST PARK  0700            43      50/  7/  9 1033.7F
PORT ARTHUR      0648               54   50/  5/  9 1033.7R
SABINE PASS N    0642            43 56   40/  9/ 11 1034.5R
TEXAS POINT      NOT AVBL
CALCASIEU PASS   0648            40 53   60/ 10/ 14   N/A
LK CHARLES BEACH 0648            38 53              1034.2F
MARSH ISLAND     0600            45                   N/A
FRESH WATER LOCK 0648            39 56   20/  6/ 10 1033.7F
AMERADA PASS     0648            41 55   20/  3/  5 1032.8S
$$




USA.gov is the U.S. government's official web portal to all federal, state and local government web resources and services.